E20YUC-1 Weather Reports


time (UTC)temp
C
wind
direction
speed
KPH
gust
KPH
rain 1hr
cm
rain 24hr
cm
rain mn
cm
humidity
%
barometer
mb
20260509125200 33 292 0.0 185.1 0.00 0.00 0.00 61 994.8
20260509124200 33 292 0.0 185.1 0.00 0.00 0.00 61 994.8
20260509123702 33 90 160.9 183.5 0.00 0.00 0.00 60 994.8
20260509123200 33 292 0.0 178.6 0.00 0.00 0.00 60 994.6
20260509122700 33 0 0.0 185.1 0.00 0.00 0.00 60 994.5
20260509122200 33 90 0.0 183.5 0.00 0.00 0.00 60 994.5
20260509121700 33 337 91.7 183.5 0.00 0.00 0.00 60 994.4
20260509121202 34 247 120.7 185.1 0.00 0.00 0.00 60 994.4
20260509120700 34 90 0.0 178.6 0.00 0.00 0.00 60 994.3
20260509120200 34 22 0.0 178.6 0.00 0.00 0.00 59 994.5
20260509115159 34 157 178.6 185.1 0.00 0.00 0.00 59 994.3
20260509114701 35 315 90.1 185.1 0.00 0.00 0.00 59 994.1
20260509113659 35 90 0.0 173.8 0.00 0.00 0.00 58 994.2
20260509112659 35 90 0.0 0.0 0.00 0.00 0.00 57 993.8
20260509112201 35 0 4.8 4.8 0.00 0.00 0.00 57 993.8
20260509111159 35 90 0.0 0.0 0.00 0.00 0.00 57 993.6
20260509110159 35 292 0.0 0.0 0.00 0.00 0.00 57 993.8
20260509105701 35 90 0.0 8.0 0.00 0.00 0.00 57 993.7
20260509105159 35 0 3.2 3.2 0.00 0.00 0.00 57 993.6
20260509104159 35 0 0.0 0.0 0.00 0.00 0.00 56 993.4
20260509103659 35 22 0.0 0.0 0.00 0.00 0.00 56 993.2
20260509103201 35 22 0.0 0.0 0.00 0.00 0.00 56 993.3
20260509102659 35 22 0.0 0.0 0.00 0.00 0.00 56 993.5
20260509102159 36 0 0.0 0.0 0.00 0.00 0.00 55 993.5
20260509101659 36 90 0.0 0.0 0.00 0.00 0.00 55 993.2
20260509101158 36 22 0.0 0.0 0.00 0.00 0.00 55 993.0
20260509100700 36 22 0.0 1.6 0.00 0.00 0.00 55 992.8
20260509100158 36 22 0.0 0.0 0.00 0.00 0.00 55 992.8
20260509095658 36 22 0.0 0.0 0.00 0.00 0.00 54 993.0
20260509095158 36 22 1.6 1.6 0.00 0.00 0.00 54 992.9
20260509094658 36 0 0.0 6.4 0.00 0.00 0.00 54 992.8
20260509094200 36 0 0.0 0.0 0.00 0.00 0.00 54 992.7
20260509093658 36 0 0.0 0.0 0.00 0.00 0.00 54 993.0
20260509092658 37 0 0.0 0.0 0.00 0.00 0.00 54 993.1
20260509092159 37 292 0.0 0.0 0.00 0.00 0.00 54 993.0
20260509091700 37 0 0.0 0.0 0.00 0.00 0.00 53 993.1
20260509091158 37 22 0.0 0.0 0.00 0.00 0.00 53 993.1
20260509090158 38 0 0.0 0.0 0.00 0.00 0.00 52 993.2
20260509085658 38 90 0.0 0.0 0.00 0.00 0.00 52 993.1
20260509085200 39 0 0.0 0.0 0.00 0.00 0.00 52 993.2
20260509084158 39 22 0.0 0.0 0.00 0.00 0.00 52 993.5
20260509083658 39 0 0.0 0.0 0.00 0.00 0.00 52 993.6
20260509083157 5 0 0.0 0.0 0.00 0.00 0.00 52 993.7
20260509082659 38 0 0.0 0.0 0.00 0.00 0.00 52 993.6
20260509082158 38 22 0.0 0.0 0.00 0.00 0.00 51 993.7
20260509081657 39 22 0.0 0.0 0.00 0.00 0.00 51 993.7
20260509080657 39 90 0.0 0.0 0.00 0.00 0.00 51 994.1
20260509080159 39 22 0.0 12.9 0.00 0.00 0.00 51 994.0
20260509075657 39 22 0.0 0.0 0.00 0.00 0.00 53 994.0
20260509074657 38 0 0.0 0.0 0.00 0.00 0.00 54 994.3
20260509074157 38 90 0.0 0.0 0.00 0.00 0.00 54 994.4
20260509073559 38 292 0.0 0.0 0.00 0.00 0.00 53 994.3
20260509073057 38 22 0.0 0.0 0.00 0.00 0.00 53 994.5
20260509072557 38 22 0.0 0.0 0.00 0.00 0.00 54 994.4
20260509071557 38 292 0.0 0.0 0.00 0.00 0.00 53 994.6
20260509071059 38 292 0.0 0.0 0.00 0.00 0.00 54 994.7
20260509070557 38 22 0.0 0.0 0.00 0.00 0.00 55 994.9
20260509065557 38 0 0.0 3.2 0.00 0.00 0.00 55 995.2
20260509065056 38 22 0.0 0.0 0.00 0.00 0.00 55 995.2
20260509064558 38 90 0.0 0.0 0.00 0.00 0.00 56 995.4
20260509064056 38 22 0.0 0.0 0.00 0.00 0.00 56 995.5
20260509063456 38 90 0.0 4.8 0.00 0.00 0.00 56 995.5
20260509062956 38 22 0.0 0.0 0.00 0.00 0.00 56 995.5
20260509062456 38 22 0.0 0.0 0.00 0.00 0.00 56 995.7
20260509062004 37 22 0.0 4.8 0.00 0.00 0.00 56 995.8
20260509061456 37 22 0.0 3.2 0.00 0.00 0.00 57 995.9
20260509060956 37 180 1.6 1.6 0.00 0.00 0.00 57 996.1
20260509060456 37 22 0.0 8.0 0.00 0.00 0.00 57 996.2
20260509055956 37 292 0.0 3.2 0.00 0.00 0.00 57 996.4
20260509055458 37 0 0.0 6.4 0.00 0.00 0.00 58 996.5
20260509054456 36 22 3.2 3.2 0.00 0.00 0.00 59 996.6
20260509054017 36 292 0.0 0.0 0.00 0.00 0.00 59 996.9
20260509053356 36 90 0.0 4.8 0.00 0.00 0.00 60 997.0
20260509052857 36 90 0.0 0.0 0.00 0.00 0.00 60 997.0
20260509052356 36 22 0.0 0.0 0.00 0.00 0.00 60 997.2
20260509051856 36 0 0.0 0.0 0.00 0.00 0.00 59 997.2
20260509050855 36 0 0.0 0.0 0.00 0.00 0.00 59 997.2
20260509050357 36 0 0.0 3.2 0.00 0.00 0.00 59 997.3
20260509045855 36 22 3.2 3.2 0.00 0.00 0.00 58 997.4
20260509044855 36 22 0.0 0.0 0.00 0.00 0.00 58 997.6
20260509044355 36 90 0.0 3.2 0.00 0.00 0.00 58 997.7
20260509043757 36 22 0.0 4.8 0.00 0.00 0.00 58 997.6
20260509042755 36 292 0.0 3.2 0.00 0.00 0.00 59 997.8
20260509042301 36 0 0.0 6.4 0.00 0.00 0.00 59 997.9
20260509041755 36 22 0.0 3.2 0.00 0.00 0.00 60 997.9
20260509041257 36 0 0.0 0.0 0.00 0.00 0.00 60 997.9
20260509035255 35 292 0.0 0.0 0.00 0.00 0.00 62 998.4
20260509034757 35 292 0.0 0.0 0.00 0.00 0.00 62 998.2
20260509034255 35 22 0.0 0.0 0.00 0.00 0.00 63 998.2
20260509033655 35 22 0.0 3.2 0.00 0.00 0.00 64 998.3
20260509033155 34 90 0.0 0.0 0.00 0.00 0.00 64 998.4
20260509032654 34 0 0.0 3.2 0.00 0.00 0.00 64 998.4
20260509032156 34 22 0.0 0.0 0.00 0.00 0.00 65 998.4
20260509031654 34 0 0.0 0.0 0.00 0.00 0.00 66 998.5
20260509031154 33 0 0.0 0.0 0.00 0.00 0.00 66 998.5
20260509030154 33 292 6.4 6.4 0.00 0.00 0.00 67 998.5
20260509025656 33 22 0.0 0.0 0.00 0.00 0.00 67 998.5
20260509024654 33 22 0.0 0.0 0.00 0.00 0.00 67 998.8
20260509024154 33 90 0.0 0.0 0.00 0.00 0.00 68 998.9
20260509023554 33 22 0.0 0.0 0.00 0.00 0.00 69 999.1
20260509023056 33 22 0.0 6.4 0.00 0.00 0.00 69 999.1
20260509022554 32 90 0.0 0.0 0.00 0.00 0.00 69 999.1
20260509021554 32 22 0.0 3.2 0.00 0.00 0.00 70 999.2
20260509021054 32 0 0.0 0.0 0.00 0.00 0.00 71 999.3
20260509020556 32 22 0.0 0.0 0.00 0.00 0.00 72 999.3
20260509015554 31 22 0.0 0.0 0.00 0.00 0.00 74 999.2
20260509014954 31 90 0.0 3.2 0.00 0.00 0.00 75 999.1
20260509014453 31 0 0.0 0.0 0.00 0.00 0.00 76 999.1
20260509013955 30 22 0.0 185.1 0.00 0.00 0.00 76 999.1
20260509013453 30 0 185.1 185.1 0.00 0.00 0.00 76 999.2
20260509012453 30 0 185.1 185.1 0.00 0.00 0.00 76 999.2
20260509011455 80 0 185.1 185.1 0.00 0.00 0.00 10 999.2
20260509010453 80 0 185.1 185.1 0.00 0.00 0.00 10 998.9
20260509005453 80 0 185.1 185.1 0.00 0.00 0.00 10 998.8
20260509004955 80 0 185.1 185.1 0.00 0.00 0.00 10 999.1
20260509004453 80 0 185.1 185.1 0.00 0.00 0.00 10 998.9
20260509003453 29 0 0.0 0.0 0.00 0.00 0.00 79 998.6
20260509002953 29 0 0.0 4.8 0.00 0.00 0.00 79 998.7
20260509002454 29 0 3.2 9.7 0.00 0.00 0.00 79 998.6
20260509001956 29 0 0.0 6.4 0.00 0.00 0.00 79 998.7
20260509001453 29 0 0.0 8.0 0.00 0.00 0.00 79 998.7
20260509000454 28 0 0.0 6.4 0.00 0.00 0.00 79 998.6
20260508235954 28 0 3.2 9.7 0.00 0.00 0.00 79 998.5
20260508234952 28 0 0.0 6.4 0.00 0.00 0.00 80 998.6
20260508233952 28 22 1.6 1.6 0.00 0.00 0.00 80 998.4
20260508233454 28 0 0.0 6.4 0.00 0.00 0.00 80 998.2
20260508232452 28 292 0.0 3.2 0.00 0.00 0.00 80 998.1
20260508231956 28 292 0.0 4.8 0.00 0.00 0.00 80 998.3
20260508231452 28 0 0.0 0.0 0.00 0.00 0.00 80 998.2
20260508230954 28 0 0.0 3.2 0.00 0.00 0.00 80 997.9
20260508230452 28 0 0.0 6.4 0.00 0.00 0.00 80 997.9
20260508225952 28 0 3.2 3.2 0.00 0.00 0.00 80 997.8
20260508224952 28 0 3.2 3.2 0.00 0.00 0.00 79 997.7
20260508224453 28 292 0.0 0.0 0.00 0.00 0.00 79 997.7
20260508223952 28 292 0.0 6.4 0.00 0.00 0.00 79 997.7
20260508222951 28 0 0.0 0.0 0.00 0.00 0.00 79 997.4
20260508222452 28 292 0.0 0.0 0.00 0.00 0.00 79 997.4
20260508221957 28 292 0.0 0.0 0.00 0.00 0.00 79 997.3
20260508220951 28 292 0.0 0.0 0.00 0.00 0.00 79 997.1
20260508215951 28 292 0.0 3.2 0.00 0.00 0.00 79 997.0
20260508215453 28 292 0.0 0.0 0.00 0.00 0.00 79 997.0
20260508214951 28 0 0.0 0.0 0.00 0.00 0.00 79 996.9
20260508214451 28 292 0.0 3.2 0.00 0.00 0.00 79 996.9
20260508213951 28 292 0.0 0.0 0.00 0.00 0.00 79 996.6
20260508213451 28 292 0.0 3.2 0.00 0.00 0.00 79 996.5
20260508212953 28 0 0.0 0.0 0.00 0.00 0.00 79 996.7
20260508212451 28 0 0.0 0.0 0.00 0.00 0.00 79 996.5
20260508211451 28 292 0.0 0.0 0.00 0.00 0.00 78 996.4
20260508210951 28 292 0.0 46.7 0.00 0.00 0.00 78 996.4
20260508210453 28 0 0.0 0.0 0.00 0.00 0.00 78 996.3
20260508205951 28 0 0.0 0.0 0.00 0.00 0.00 78 996.2
20260508205451 28 0 0.0 0.0 0.00 0.00 0.00 79 996.1
20260508204450 28 22 0.0 0.0 0.00 0.00 0.00 79 995.9
20260508203952 28 22 0.0 0.0 0.00 0.00 0.00 79 995.8
20260508203450 28 22 0.0 0.0 0.00 0.00 0.00 79 995.8
20260508202450 28 292 0.0 0.0 0.00 0.00 0.00 79 995.8
20260508201955 28 90 0.0 0.0 0.00 0.00 0.00 79 995.7
20260508201452 28 22 0.0 0.0 0.00 0.00 0.00 79 995.7
20260508200450 28 0 0.0 0.0 0.00 0.00 0.00 78 995.7
20260508195950 28 90 0.0 0.0 0.00 0.00 0.00 78 995.7
20260508195450 28 90 0.0 0.0 0.00 0.00 0.00 78 995.8
20260508194952 28 90 0.0 0.0 0.00 0.00 0.00 78 995.8
20260508194450 28 22 0.0 0.0 0.00 0.00 0.00 78 995.8
20260508193950 28 0 0.0 0.0 0.00 0.00 0.00 78 995.9
20260508192950 28 90 3.2 3.2 0.00 0.00 0.00 77 995.9
20260508192452 28 22 0.0 6.4 0.00 0.00 0.00 77 995.8
20260508191952 28 90 0.0 0.0 0.00 0.00 0.00 77 995.9
20260508190949 28 0 1.6 6.4 0.00 0.00 0.00 77 995.9
20260508190449 29 90 0.0 3.2 0.00 0.00 0.00 76 996.0
20260508185951 19 22 0.0 0.0 0.00 0.00 0.00 76 996.2
20260508184949 29 22 0.0 4.8 0.00 0.00 0.00 75 996.4
20260508183949 29 292 0.0 4.8 0.00 0.00 0.00 75 996.3
20260508183451 30 0 0.0 3.2 0.00 0.00 0.00 74 996.4
20260508182949 30 0 0.0 4.8 0.00 0.00 0.00 74 996.4
20260508182449 30 0 3.2 3.2 0.00 0.00 0.00 74 996.4
20260508181449 30 0 0.0 3.2 0.00 0.00 0.00 74 996.5
20260508180951 30 0 0.0 14.5 0.00 0.00 0.00 74 996.5
20260508180449 30 0 0.0 3.2 0.00 0.00 0.00 74 996.5
20260508175449 30 0 0.0 4.8 0.00 0.00 0.00 73 996.7
20260508174949 30 292 0.0 0.0 0.00 0.00 0.00 73 996.9
20260508174451 30 0 0.0 22.5 0.00 0.00 0.00 73 996.9
20260508173949 30 22 0.0 0.0 0.00 0.00 0.00 73 996.9
20260508173449 30 292 0.0 0.0 0.00 0.00 0.00 73 997.1
20260508172448 30 292 0.0 0.0 0.00 0.00 0.00 73 997.6
20260508171953 30 292 0.0 0.0 0.00 0.00 0.00 73 997.6
20260508170948 30 292 0.0 0.0 0.00 0.00 0.00 73 997.7
20260508165948 30 292 0.0 0.0 0.00 0.00 0.00 73 997.9
20260508165450 30 0 0.0 0.0 0.00 0.00 0.00 73 997.8
20260508164448 30 292 0.0 0.0 0.00 0.00 0.00 73 997.8
20260508163448 30 0 0.0 0.0 0.00 0.00 0.00 73 997.9
20260508162950 30 0 0.0 3.2 0.00 0.00 0.00 73 997.7
20260508162448 30 292 3.2 3.2 0.00 0.00 0.00 73 997.7
20260508161450 30 292 0.0 1.6 0.00 0.00 0.00 73 997.8
20260508160948 30 0 0.0 3.2 0.00 0.00 0.00 73 997.8
20260508160450 30 292 3.2 3.2 0.00 0.00 0.00 73 997.8
20260508155448 30 292 1.6 6.4 0.00 0.00 0.00 72 998.1
20260508154947 30 292 4.8 4.8 0.00 0.00 0.00 72 998.0
20260508154447 30 292 0.0 0.0 0.00 0.00 0.00 71 998.0
20260508153949 30 292 0.0 6.4 0.00 0.00 0.00 71 998.1
20260508153447 30 0 0.0 4.8 0.00 0.00 0.00 71 998.1
20260508152947 30 292 0.0 3.2 0.00 0.00 0.00 70 997.9
20260508152447 30 292 0.0 4.8 0.00 0.00 0.00 70 997.9
20260508151952 31 292 0.0 4.8 0.00 0.00 0.00 70 997.9
20260508151449 31 292 0.0 3.2 0.00 0.00 0.00 70 997.9
20260508150947 31 292 0.0 3.2 0.00 0.00 0.00 70 998.0
20260508145947 31 292 0.0 0.0 0.00 0.00 0.00 69 998.0
20260508145447 31 292 0.0 0.0 0.00 0.00 0.00 69 998.2
20260508144949 31 0 0.0 0.0 0.00 0.00 0.00 69 998.2
20260508143947 31 0 0.0 0.0 0.00 0.00 0.00 68 998.1
20260508143447 31 0 0.0 0.0 0.00 0.00 0.00 68 998.2
20260508142947 31 0 0.0 0.0 0.00 0.00 0.00 68 998.1
20260508142448 31 90 0.0 0.0 0.00 0.00 0.00 68 998.3
20260508141948 31 0 0.0 0.0 0.00 0.00 0.00 68 998.2
20260508141446 31 22 0.0 0.0 0.00 0.00 0.00 68 998.1
20260508140446 31 22 0.0 0.0 0.00 0.00 0.00 68 998.0
20260508135948 31 292 0.0 0.0 0.00 0.00 0.00 68 997.9
20260508135446 31 292 0.0 0.0 0.00 0.00 0.00 68 997.8
20260508134946 1 292 0.0 0.0 0.00 0.00 0.00 68 997.8
20260508133946 31 292 0.0 0.0 0.00 0.00 0.00 68 997.4
20260508133448 31 292 0.0 0.0 0.00 0.00 0.00 68 997.3
20260508132946 31 292 0.0 0.0 0.00 0.00 0.00 68 997.1
20260508132446 31 292 0.0 0.0 0.00 0.00 0.00 68 997.1
20260508131446 31 292 0.0 0.0 0.00 0.00 0.00 68 997.1
20260508130948 31 292 0.0 1.6 0.00 0.00 0.00 68 997.0
20260508130446 31 292 0.0 0.0 0.00 0.00 0.00 68 996.9
20260508125446 31 22 0.0 0.0 0.00 0.00 0.00 67 996.7